STARLINK-11674, 64327

Orbit data source: Space-Track

STARLINK-11674, 64327 is a payload satellite owned by SpaceX/Seattle (US) in LEO that was launched on Tue, 10 Jun 2025 UTC via an FALCON 9 launch vehicle from the Air Force Eastern Test Range (AFETR). Payload-class satellites include a variety of spacecraft equipped with specific instruments for various scientific and technological missions. These include communications satellites like Starlink; space stations such as the ISS; scientific satellites like the Hubble; Earth observation satellites from companies like Planet Labs, Umbra, and HawkEye 360; GPS; miniature CubeSats for education and research; and military/defense satellites.

Loading next visibility...
Identifier
64327, 2025-124L
Orbit
LEO
Country
Flag of USUS
Related business
Manufacturer
SpaceX/Seattle
Mission
Operational Commercial Communications
Bus & Motor
STARLINK V2MD, Unknown motor
Mass
960 kg wet, ~910 kg dry
Launch date (UTC)
2025-06-10 (11 months ago)
Launch vehicle
FALCON 9
Launch site
Air Force Eastern Test Range (AFETR)
Object type
Payload
Rocket body
Debris
Shape & HBR
Box + 2 Pan, 18.1 m
Radar Cross Section
36.964 m², Large (>1 m²)

Expand to show TLE details & history
Last TLE update: 1 day ago

TLE from 1 day ago
0 STARLINK-11674
1 64327U 25124L   26119.02126906  .00169923  00000-0  13017-2 0  9995
2 64327  42.9984  85.5223 0002268 200.5594 159.5182 15.70822795 50752
Epoch: 2026-04-29T00:30Z
TLE epoch observation values (Epoch: 2026-04-29T00:30:37.646Z)
Latitude
-0.00008°
Longitude
-139.12285°
Altitude
357.746 km
Speed
7.696 km/s
True Right ascension
05h 42m 05s
True Declination
0° 00' 00"
Sunlit
Object was in daylight at epoch
Visualization orbit readout
Latitude
Unknown
Longitude
Unknown
Altitude
Unknown
Speed
Unknown
Apparent Right ascension
Unknown
Apparent Declination
Unknown
Sunlit
N/A
Visualization observer readout
Local Sidereal Time
14:30:52
Azimuth
Unknown
Elevation
Unknown
Doppler factor
Unknown
Orbital elements
Apogee altitude
360.054 km
Perigee altitude
356.998 km
Semi-major axis
6,736.663 km
Eccentricity
0.00023
Inclination
42.9984°
RAAN
85.5223°
Arg. of periapsis
200.5594°
True anomaly
159.52729°
Mean anomaly
159.5182°
Eccentric anomaly
159.52275°
Mean motion
3.92533 °/min
Orbital period
91.71 mins
BSTAR
0.0013017
Loading maneuver chart data...
Computing Atmospheric mass density...
Loading historical data...
Loading historical data...
Loading historical data...
Loading historical data...
Loading historical data...
Loading historical data...
Loading historical data...

Documentation

Showing up to 5 results
|